FW3698 Weather Reports


time (UTC)temp
F
wind
direction
speed
knots
gust
knots
rain 1hr
in
rain 24hr
in
rain mn
in
humidity
%
barometer
mb
20260504205124 78 274 0.9 5.2 0.00 0.00 0.00 44 1009.2
20260504204122 77 262 0.0 5.2 0.00 0.00 0.00 49 1009.2
20260504203122 74 269 0.0 3.5 0.00 0.00 0.00 60 1009.4
20260504202124 73 342 0.0 2.6 0.00 0.00 0.00 62 1009.4
20260504201122 75 300 0.9 5.2 0.00 0.00 0.00 53 1009.5
20260504200122 76 267 0.9 7.0 0.00 0.00 0.00 49 1009.6
20260504195124 76 292 0.9 5.2 0.00 0.00 0.00 45 1009.6
20260504194122 75 288 0.9 5.2 0.00 0.00 0.00 46 1009.6
20260504193122 74 280 0.9 3.5 0.00 0.00 0.00 47 1009.7
20260504192124 74 283 0.0 2.6 0.00 0.00 0.00 49 1009.8
20260504191144 72 271 0.9 3.5 0.00 0.00 0.00 53 1009.8
20260504190143 71 273 0.9 7.0 0.00 0.00 0.00 55 1009.9
20260504185124 71 278 0.9 2.6 0.00 0.00 0.00 59 1009.9
20260504184122 71 270 0.0 0.0 0.00 0.00 0.00 59 1010.0
20260504183123 69 248 0.0 0.0 0.00 0.00 0.00 65 1009.9
20260504182123 69 270 0.0 0.0 0.00 0.00 0.00 57 1009.9
20260504181122 69 270 0.0 0.0 0.00 0.00 0.00 55 1010.0
20260504180122 69 270 0.0 0.0 0.00 0.00 0.00 56 1010.0
20260504175122 68 270 0.0 0.0 0.00 0.00 0.00 58 1010.0
20260504174145 67 270 0.0 0.0 0.00 0.00 0.00 62 1009.9
20260504173124 67 270 0.0 0.0 0.00 0.00 0.00 62 1010.0
20260504172122 65 270 0.0 0.0 0.00 0.00 0.00 67 1010.0
20260504171124 66 270 0.0 0.0 0.00 0.00 0.00 60 1010.1
20260504170122 65 270 0.0 0.0 0.00 0.00 0.00 63 1009.9
20260504160122 65 225 0.0 0.0 0.00 0.00 0.00 58 1010.0
20260504151122 62 180 0.0 0.0 0.00 0.00 0.00 67 1009.9
20260504150122 62 185 0.0 2.6 0.00 0.00 0.00 67 1009.9
20260504141145 62 247 0.0 2.6 0.00 0.00 0.00 67 1009.5
20260504140124 62 27 0.9 6.1 0.00 0.00 0.00 66 1009.4
20260504130123 61 90 0.0 2.6 0.00 0.00 0.00 68 1009.0
20260504120123 61 90 0.0 0.0 0.00 0.00 0.00 64 1009.0
20260504110123 62 90 0.0 2.6 0.00 0.00 0.00 62 1009.1
20260504100121 60 90 0.0 0.0 0.00 0.00 0.00 69 1009.0
20260504090124 61 113 0.0 0.0 0.00 0.00 0.00 65 1008.8
20260504081144 62 113 0.0 2.6 0.00 0.00 0.00 66 1008.7
20260504080123 62 113 0.0 2.6 0.00 0.00 0.00 67 1008.5
20260504070144 62 113 0.0 0.0 0.00 0.00 0.00 66 1008.4
20260504060144 65 113 0.0 0.0 0.00 0.00 0.00 66 1008.5
20260504050123 67 113 0.0 0.0 0.00 0.00 0.00 58 1008.7
20260504045122 68 113 0.0 1.7 0.00 0.00 0.00 57 1008.7
20260504044121 69 113 0.0 1.7 0.00 0.00 0.00 56 1008.6
20260504043143 69 45 0.0 1.7 0.00 0.00 0.00 56 1008.6
20260504042123 69 82 0.0 3.5 0.00 0.00 0.00 56 1008.6
20260504041123 70 105 0.0 1.7 0.00 0.00 0.00 54 1008.7
20260504040121 71 90 0.0 1.7 0.00 0.00 0.00 52 1008.7
20260504035123 73 90 0.0 2.6 0.00 0.00 0.00 51 1008.7
20260504034144 74 113 0.0 2.6 0.00 0.00 0.00 48 1008.6
20260504033123 77 135 0.0 0.0 0.00 0.00 0.00 46 1008.6
20260504032122 77 113 0.0 1.7 0.00 0.00 0.00 48 1008.6
20260504031123 75 113 0.0 2.6 0.00 0.00 0.00 51 1008.7
20260504030121 77 113 0.0 1.7 0.00 0.00 0.00 48 1008.7
20260504024124 81 180 0.0 0.0 0.00 0.00 0.00 40 1008.7
20260504023123 81 180 0.0 0.0 0.00 0.00 0.00 40 1008.8
20260504022122 81 270 0.0 0.0 0.00 0.00 0.00 40 1008.9
20260504021123 81 270 0.0 0.0 0.00 0.00 0.00 40 1008.9
20260504020145 84 270 0.0 0.0 0.00 0.00 0.00 32 1009.0
20260504015124 84 270 0.0 0.0 0.00 0.00 0.00 32 1009.0
20260504014122 84 23 0.0 0.0 0.00 0.00 0.00 32 1009.2
20260504013144 84 23 0.0 0.0 0.00 0.00 0.00 32 1009.2
20260504012145 84 270 0.0 0.0 0.00 0.00 0.00 32 1009.5
20260504011123 84 270 0.9 1.7 0.00 0.00 0.00 32 1009.5
20260504010122 81 270 0.9 1.7 0.00 0.00 0.00 38 1009.7
20260504005124 81 42 2.6 5.2 0.00 0.00 0.00 38 1009.7
20260504004143 81 45 3.5 5.2 0.00 0.00 0.00 38 1010.0
20260504003143 81 252 2.6 5.2 0.00 0.00 0.00 38 1010.2
20260504002122 81 247 2.6 3.5 0.00 0.00 0.00 38 1010.2
20260504001124 81 247 2.6 3.5 0.00 0.00 0.00 38 1010.2
20260504000122 79 247 2.6 3.5 0.00 0.00 0.00 41 1010.5
20260503235124 79 266 2.6 3.5 0.00 0.00 0.00 41 1010.5
20260503234124 79 270 2.6 3.5 0.00 0.00 0.00 41 1010.8
20260503233123 79 270 2.6 4.3 0.00 0.00 0.00 41 1010.9
20260503232122 79 270 2.6 4.3 0.00 0.00 0.00 41 1010.9
20260503231122 79 270 4.3 7.0 0.00 0.00 0.00 41 1010.9
20260503230144 77 270 4.3 7.0 0.00 0.00 0.00 50 1011.2
20260503225124 77 259 1.7 7.0 0.00 0.00 0.00 50 1011.2
20260503224123 77 247 0.9 1.7 0.00 0.00 0.00 50 1011.7
20260503223145 77 225 5.2 8.7 0.00 0.00 0.00 50 1011.8
20260503222124 77 225 5.2 8.7 0.00 0.00 0.00 50 1011.8
20260503221124 77 314 2.6 8.7 0.00 0.00 0.00 50 1011.8
20260503220143 77 360 1.7 2.6 0.00 0.00 0.00 50 1012.1
20260503215122 77 360 1.7 2.6 0.00 0.00 0.00 50 1012.1
20260503214122 74 360 1.7 2.6 0.00 0.00 0.00 62 1012.2
20260503213123 74 360 0.0 2.6 0.00 0.00 0.00 62 1012.2
20260503212124 71 360 0.0 0.0 0.00 0.00 0.00 63 1012.5
20260503211122 71 113 1.7 3.5 0.00 0.00 0.00 63 1012.5
20260503210123 71 113 2.6 3.5 0.00 0.00 0.00 63 1013.0